Regional Weather Roundup
Issued by NWS

Home | Current Version | Previous Version | Text Only | Print | Product List | Glossary Off
Versions: 1 2 3 4 5 6 7 8 9 10 11 12 13 14 15 16 17 18 19 20 21 22 23 24 25 26 27 28 29 30 31 32 33 34 35 36 37 38 39 40 41 42 43 44 45 46 47 48 49 50

948
ASUS43 KIND 170209
RWRIN

WEATHER ROUNDUP FOR INDIANA
NATIONAL WEATHER SERVICE INDIANAPOLIS IN
900 PM EST TUE JAN 16 2018

NOTE: "FAIR" INDICATES FEW OR NO CLOUDS BELOW 12,000 FEET WITH NO
SIGNIFICANT WEATHER AND/OR OBSTRUCTIONS TO VISIBILITY.

* - STATION DOES NOT REPORT WEATHER SUCH AS PRECIPITATION OR FOG.

+ - STATION NOT QUALITY CONTROLLED BY THE NATIONAL WEATHER SERVICE.
    USE DATA WITH CAUTION...ESPECIALLY DEWPOINT AND RELATIVE
    HUMIDITY OBSERVATIONS.

INZ001>003-010>013-019-020-170300-
NORTHWEST INDIANA

CITY           SKY/WX    TMP DP  RH WIND       PRES   REMARKS
GARY /AIRPORT/ PTCLDY    21  10  63 W12       30.52R WCI   9
KNOX *+        MOCLDY    14  12  92 SW9       30.49S WCI   2
LA PORTE +     LGT SNOW  12  10  91 CALM      30.48S
MICHIGAN CITY+ LGT SNOW  18  16  93 CALM      30.49R VSB 3/4
MONTICELLO +   FLURRIES   9   5  84 SW9       30.53S WCI  -5
RENSSELAER +   MOCLDY    10   5  79 SW9       30.53R WCI  -2
VALPARAISO     LGT SNOW  22  17  81 W9        30.48S WCI  12

$$

LMZ046-743>745-170300-
SOUTHERN LAKE MICHIGAN

STATION/POSITION TIME  TEMP    WIND        PRES    WAVE
                       AIR SEA DIR/SP/G            HT
                 (UTC) (F)     (DEG/KT/KT) (MB)    (FT)
BURNS HARBOR     0140   24     300/ 21/ 24 1032.2S
MICHIGAN CITY    0140          200/  4/  5   N/A

$$

INZ004-005-014>016-021>024-170300-
NORTH CENTRAL INDIANA

CITY           SKY/WX    TMP DP  RH WIND       PRES   REMARKS
ELKHART        FAIR       7   3  85 CALM      30.48R
GOSHEN         FAIR       3   0  87 SW7       30.48S WCI  -9
LOGANSPORT +   LGT SNOW  10   7  85 SW14      30.53F WCI  -5
PERU/GRISSOM   CLOUDY     7   3  85 SW12      30.51S WCI  -9
ROCHESTER +    FLURRIES  10   7  85 SW7       30.50S WCI   0
SOUTH BEND     LGT SNOW   9   6  88 S6        30.48R FOG     WCI  -1
WARSAW +       FLURRIES   7   3  85 SW3       30.49S

$$

INZ006>009-017-018-025>027-170300-
NORTHEAST INDIANA

CITY           SKY/WX    TMP DP  RH WIND       PRES   REMARKS
AUBURN +       FLURRIES   7   1  78 SW5       30.49S WCI  -2
FORT WAYNE     CLOUDY    10   5  80 SW14      30.51R WCI  -6
HUNTINGTON +   FLURRIES   9   4  82 SW7       30.51S WCI  -3
KENDALLVILLE + MOCLDY     4   1  86 SW6       30.47R WCI  -7

$$

INZ028-029-035-036-043>045-051>053-170300-
WEST CENTRAL INDIANA

CITY           SKY/WX    TMP DP  RH WIND       PRES   REMARKS
CRAWFORDSVL +  LGT SNOW   5   2  89 MISG        N/A
GREENCASTLE +  FLURRIES   5   1  85 CALM      30.58S
LAFAYETTE      CLOUDY     8   4  83 W9        30.57S WCI  -5
TERRE HAUTE    LGT SNOW   6   0  76 W6        30.62S WCI  -4

$$

INZ030>032-037>040-046>048-054>057-064-065-170300-
CENTRAL INDIANA

CITY           SKY/WX    TMP DP  RH WIND       PRES   REMARKS
FISHERS *+     CLOUDY     5   3  92 W3        30.56F
FRANKFORT +    FLURRIES   9   5  82 W12       30.56S WCI  -5
GREENWOOD *+   CLOUDY     8   1  75 W8G16     30.57F WCI  -5
INDIANAPOLIS   CLOUDY     6   0  76 W12       30.57S WCI  -9
-EAGLE CREEK   CLOUDY     6   0  76 VRB5      30.55F WCI  -3
MARION +       FLURRIES   7   3  84 W14       30.53S WCI -10
MT COMFORT *+  CLOUDY     7   3  85 W10       30.54F WCI  -8
SHELBYVILLE    CLOUDY     6  -1  73 W8        30.57R WCI  -7
ZIONSVILLE +   FLURRIES   5   1  83 W8        30.55S WCI  -8

$$

INZ033-034-041-042-049-050-058-059-170300-
EAST CENTRAL INDIANA

CITY           SKY/WX    TMP DP  RH WIND       PRES   REMARKS
MUNCIE         CLOUDY     8   1  73 W9        30.52S WCI  -5
RICHMOND +     CLOUDY     5   1  85 W15       30.51S WCI -13

$$

INZ060-061-067>069-081>083-085>088-170300-
SOUTHWEST INDIANA

CITY           SKY/WX    TMP DP  RH WIND       PRES   REMARKS
EVANSVILLE     CLOUDY     7   2  80 NW5       30.67R WCI  -2
HUNTINGBURG +  FLURRIES   6   1  80 NW6       30.65R WCI  -4
WASHINGTON +   LGT SNOW   6  -1  73 W3        30.66R

$$

INZ062-063-066-070>080-084-089>092-170300-
SOUTH CENTRAL AND SOUTHEAST INDIANA

CITY           SKY/WX    TMP DP  RH WIND       PRES   REMARKS
BATESVILLE *+    N/A    N/A N/A N/A MISG        N/A
BEDFORD +      LGT SNOW   5   0  78 W3        30.60S
BLOOMINGTON    CLOUDY     5  -1  76 W7        30.58S WCI  -7
FRENCH LICK *+ MOCLDY     5  -2  72 CALM      30.61R
MADISON *+     CLOUDY     7   0  72 W5        30.60R WCI  -2
NORTH VERNON + FLURRIES   5   0  78 W7        30.59R WCI  -7
SEYMOUR +      FLURRIES   9   0  66 W7        30.62R WCI  -3

$$





USA.gov is the U.S. government's official web portal to all federal, state and local government web resources and services.